Terug naar catalogus

COSMOS 970 DEB

ActiefLEO
NORAD 13505·DEBRIS·🇷🇺 Russia

Gelanceerd Dec 21, 1977 vanaf Baikonur Cosmodrome

Loading…

Volgende Passages (komende 24 uur)

TLE

VersSource: Space-Track

Epoch: Sep 14, 2026, 09:40 UTC

1 13505U 77121BC  26257.40321631  .00000832  00000-0  11925-2 0  9997
2 13505  65.3540 241.3593 0010279  48.7189 103.6104 13.61501188704237

Volg COSMOS 970 DEB in realtime met AllMySat

Download on the App Store